Terug naar catalogus

SL-14 DEB

ActiefPO
NORAD 35400·DEBRIS·🇷🇺 Russia

Gelanceerd Sep 28, 1991 vanaf Plesetsk Cosmodrome

Loading…

Volgende Passages (komende 24 uur)

TLE

VerouderdSource: Space-Track

Epoch: Aug 31, 2026, 12:55 UTC

1 35400U 91068AW  26243.53833005  .00000072  00000-0  22672-3 0  9991
2 35400  82.9262 333.1452 0189986 204.0678 172.8556 12.85911837317417

Volg SL-14 DEB in realtime met AllMySat

Download on the App Store